Weather History for Jordan, MT

Change the Weather History Date:

Saturday, September 8, 2012

  Actual Average Record
Temperature  
Mean Temperature 61 °F 61 °F  
Max Temperature 79 °F 77 °F 98 °F (1998)
Min Temperature 42 °F 44 °F 28 °F (2008)
Degree Days  
Heating Degree Days 4 6  
Month to date heating degree days 28 38  
Since 1 July heating degree days 60 103  
Cooling Degree Days 0 1  
Month to date cooling degree days 10 15  
Year to date cooling degree days 708 408  
Growing Degree Days 11 (Base 50)    
Moisture  
Dew Point 38 °F    
Average Humidity 45    
Maximum Humidity 62    
Minimum Humidity 28    
Precipitation  
Precipitation 0.00 in 0.04 in 0.92 in (1991)
Month to date precipitation 0.03 0.30  
Year to date precipitation 5.75 10.22  
Snow  
Snow 0.00 in - - ()
Month to date snowfall 0.0  
Since 1 July snowfall 0.0  
Since 1 September snowfall 0.0  
Snow Depth 0.00 in    
Sea Level Pressure  
Sea Level Pressure 30.20 in    
Wind  
Wind Speed 6 mph (NE)    
Max Wind Speed 12 mph    
Max Gust Speed 16 mph    
T = Trace of Precipitation, MM = Missing Value Source: NWS Daily Summary

Daily Weather History Graph

Daily Weather History Graph

Search for Another Location

Airport:

Trip Planner

Search our weather history database for the weather conditions in past years. The results will help you decide how hot, cold, wet, or windy it might be!

Date:

Astronomy

Sep. 08, 2012 Rise Set
Actual Time 6:36 AM MDT 7:32 PM MDT
Civil Twilight 6:05 AM MDT 8:03 PM MDT
Nautical Twilight 5:28 AM MDT 8:41 PM MDT
Astronomical Twilight 4:48 AM MDT 9:20 PM MDT
Moon 11:51 PM MDT (9/8) 2:50 PM MDT (9/8)
Length of Visible Light 13h 58m
Length of Day
12h 56m
Waning Gibbous, 48% of the Moon is Illuminated
Sep 8
Waning Gibbous
Sep 15
New
Sep 22
First Quarter
Sep 29
Full
Oct 8
Last Quarter

Hourly Weather History & Observations

Time (MDT) Temp. Windchill Dew Point Humidity Pressure Visibility Wind Dir Wind Speed Gust Speed Precip Events Conditions
12:48 AM 46.9 °F - 30.9 °F 54% 30.22 in - West 4.6 mph - N/A   Unknown
1:48 AM 46.9 °F - 30.9 °F 54% 30.21 in - West 5.8 mph - N/A   Unknown
2:48 AM 43.0 °F 40.3 °F 30.9 °F 62% 30.22 in - West 4.6 mph - N/A   Unknown
3:48 AM 46.9 °F - 32.0 °F 56% 30.21 in - West 6.9 mph - N/A   Unknown
4:48 AM 46.9 °F - 32.0 °F 56% 30.22 in - West 8.1 mph - N/A   Unknown
5:48 AM 46.0 °F 41.9 °F 32.0 °F 58% 30.23 in - WNW 8.1 mph - N/A   Unknown
6:48 AM 45.0 °F 41.2 °F 32.0 °F 60% 30.25 in - WNW 6.9 mph - N/A   Unknown
7:48 AM 50.0 °F - 34.0 °F 54% 30.28 in - West 3.5 mph - N/A   Unknown
8:48 AM 62.1 °F - 43.0 °F 50% 30.28 in - NNE 10.4 mph - N/A   Unknown
9:48 AM 64.0 °F - 46.0 °F 52% 30.29 in - ENE 10.4 mph - N/A   Unknown
10:48 AM 66.0 °F - 46.0 °F 48% 30.29 in - ENE 8.1 mph - N/A   Unknown
11:48 AM 69.1 °F - 46.9 °F 45% 30.28 in - Variable 6.9 mph - N/A   Unknown
12:48 PM 73.0 °F - 46.9 °F 39% 30.26 in - East 9.2 mph - N/A   Unknown
1:48 PM 73.9 °F - 46.0 °F 37% 30.23 in - South 5.8 mph - N/A   Unknown
2:48 PM 77.0 °F - 44.1 °F 31% 30.21 in - Variable 4.6 mph - N/A   Unknown
3:48 PM 78.1 °F - 43.0 °F 29% 30.17 in - East 6.9 mph - N/A   Unknown
4:48 PM 79.0 °F - 42.1 °F 27% 30.15 in - NNE 4.6 mph - N/A   Unknown
5:48 PM 77.0 °F - 41.0 °F 28% 30.14 in - Calm Calm - N/A   Unknown
6:48 PM 75.9 °F - 41.0 °F 29% 30.14 in - East 8.1 mph - N/A   Unknown
7:48 PM 70.0 °F - 41.0 °F 35% 30.12 in - East 8.1 mph - N/A   Unknown
8:48 PM 64.0 °F - 39.0 °F 40% 30.12 in - East 6.9 mph - N/A   Unknown
9:48 PM 59.0 °F - 35.1 °F 41% 30.12 in - Calm Calm - N/A   Unknown
10:48 PM 60.1 °F - 33.1 °F 36% 30.11 in - East 4.6 mph - N/A   Unknown
11:48 PM 59.0 °F - 33.1 °F 38% 30.09 in - East 5.8 mph - N/A   Unknown